Regional Weather Roundup
Issued by NWS Cleveland, OH

Home | Current Version | Previous Version | Text Only | Print | Product List | Glossary Off
Versions: 1 2 3 4 5 6 7 8 9 10 11 12 13 14 15 16 17 18 19 20 21 22 23 24 25 26 27 28 29 30 31 32 33 34 35 36 37 38 39 40 41 42 43 44 45 46 47 48 49 50

000
ASUS41 KCLE 032102
RWRCLE
OHIO REGIONAL WEATHER ROUNDUP
NATIONAL WEATHER SERVICE CLEVELAND, OH
400 PM EST TUE MAR 03 2015

NOTE: "FAIR" INDICATES FEW OR NO CLOUDS BELOW 12,000 FEET WITH NO
SIGNIFICANT WEATHER AND/OR OBSTRUCTIONS TO VISIBILITY.

OHZ001>008-015>018-024>027-034-035-043-044-032200-
   NORTHWEST OHIO

CITY           SKY/WX    TMP DP  RH WIND       PRES   REMARKS
DEFIANCE       CLOUDY    36  33  89 SW13G21   29.64F FOG
FINDLAY        CLOUDY    39  35  86 SW28G43   29.64F
TOLEDO EXPRESS CLOUDY    34  33  96 SW9G18    29.61F FOG     WCI  27
TOLEDO EXEC    CLOUDY    35  32  88 SW13      29.63F FOG     WCI  26
LIMA           CLOUDY    39 N/A N/A SW18G30   29.65F FOG
$$

OHZ009>014-019>023-028>033-038-089-032200-
   NORTHEAST OHIO

CITY           SKY/WX    TMP DP  RH WIND       PRES   REMARKS
CLE-HOPKINS    LGT RAIN  35  31  85 S16G25    29.69S FOG     WCI  25
CLE-LAKEFRONT  LGT RAIN  35  30  82 S13       29.66F WCI  26
CUY CO. ARPT   LGT RAIN  37  32  81 S18G31    29.67F FOG
LORAIN-ELYRIA  LGT RAIN  34  32  92 S16       29.66F FOG     WCI  24
ASHTABULA      CLOUDY    32  28  85 S20G28    29.68F WCI  20
AKRON-CANTON   LGT RAIN  35  32  88 S13       29.71F VSB 1   WCI  26
WOOSTER        LGT RAIN  34  32  92 S15G23    29.71F FOG     WCI  24
MANSFIELD      CLOUDY    38  37  97 S28G44    29.68F FOG
YOUNGSTOWN     FRZ RAIN  32  30  92 S14       29.71F VSB 1   WCI  22
$$

OHZ042-051>053-060>062-070>072-077>081-032200-
  SOUTHWEST OHIO

CITY           SKY/WX    TMP DP  RH WIND       PRES   REMARKS
CINC-COVINGTON RAIN      47  46  97 S15G22    29.76F VSB 1/4
CINC-LUNKEN    RAIN      44  44 100 VRB5      29.78F VSB 1
HAMILTON       LGT RAIN  44  44 100 W6        29.78R FOG
DAYTON         DRZL/FOG  40  39  97 S15       29.73F VSB 1
WRIGHT-PAT AFB LGT RAIN  39  37  93 SW9       29.74S FOG
DAYTON GENERAL LGT RAIN  42  42 100 SW10      29.75R VSB 3/4
WILMINGTON     RAIN      41  39  93 S15       29.74F VSB 1
$$

OHZ036-037-039>041-045>050-054>059-063>069-073>076-082>088-032200-
  CENTRAL AND SOUTHEAST OHIO

CITY           SKY/WX    TMP DP  RH WIND       PRES   REMARKS
COLUMBUS       RAIN      36  35  96 S9        29.74F FOG
OSU AIRPORT    LGT RAIN  35  34  96 S8        29.74F FOG     WCI  29
BOLTON FIELD   LGT RAIN  37  37 100 S9        29.74F VSB 1
RICKENBACK AFB LGT RAIN  36  35  97 S13       29.74F
NEWARK         LGT RAIN  38  35  89 S8        29.74F FOG
MARION         CLOUDY    35  33  92 S21       29.71F FOG     WCI  24
LANCASTER      RAIN      43  41  93 S15       29.75F FOG
ZANESVILLE     LGT RAIN  39  37  92 S15       29.76F FOG
NEW PHILLY     LGT RAIN  40  36  86 S9        29.74F FOG
$$



USA.gov is the U.S. government's official web portal to all federal, state and local government web resources and services.